Weather in Afipsip

Russia / Republic of Adygea     44°59′44″N   38°46′41″E
temp.,
°C
wind,
m/s
gust,
m/s
humid.,
%
clouds,
%
prec.,
mm/h
press.,
hPa
HPBL,
m
29 november, mon
mon2900:00+15s1017744 0.3 1011716
03:00+15ssw101874100 0.3 1011735
06:00+15s918705 0.0 1010581
09:00+17s10186395 0.0 1010892
12:00+20s13194882 0.0 1008995
15:00+21s1321409 0.0 1005969
18:00+21s132438100 0.0 1003884
21:00+20ssw112042100 0.0 1004861
30 november, tue
tue3000:00+19sw91654100 0.1 1002984
03:00+14wsw91678100 0.6 10041305
06:00+13ssw8178199 3.1 10041084
09:00+13sw71371100 3.3 10061070
12:00+15sw711611 0.0 10041169
15:00+13ssw61070100 0.1 10011015
18:00+11se4682100 1.9 996294
21:00+12wsw10167096 7.2 994998
1 december, wed
wed100:00+11sw11226582 0.0 9961624
03:00+11ssw111878100 0.1 9921367
06:00+5wnw91483100 0.4 10041167
09:00+6w71062100 0.6 10091631
12:00+7w712475 0.0 10101627
15:00+8sw6116466 0.1 10091218
18:00+8sw71367100 0.4 10091047
21:00+7wsw81370100 0.6 10101055
2 december, thu
thu200:00+7w5107682 3.3 1012967
03:00+5wsw39785 3.3 1014293
06:00+5sw34795 0.0 101576
09:00+6ssw247777 0.0 101787
12:00+11sw610565 0.0 10171578
15:00+11sw711615 0.0 10171388
18:00+9ssw612695 0.0 1017517
21:00+9ssw613707 0.0 1017496
3 december, fri
fri300:00+9s7147259 0.0 1017552
03:00+9s6127198 0.0 1017369
06:00+9s497366 0.0 1017201
09:00+8ese357274 0.0 101896
12:00+13sse47536 0.0 1017531
15:00+14sse364463 0.0 1016351
18:00+10se45606 0.0 101679
21:00+8se35675 0.0 101666